Погода в Максатихе

Погода в Максатихе : погода сейчас, прогноз погоды и архив. Всё, что Вы хотите узнать о погоде в Максатихе!

Поиск расширенной информации на нашем сайте:

Другие новости

Новости СМИ2

Главная страница сайта

Новости сайта

03.07.2017

Напоминаем, что на нашем специализированном сайте Метеоцентр.Азия вы можете получить высокодетализированные автоматические прогнозы погоды по пунктам России, СНГ и мира в авиационном формате (включающие направление и скорость ветра, видимость, явления погоды, количество и форму облачности, нижнюю и верхнюю границу облачности).


Погода в Максатихе - сегодня

Время (UTC), дата Ветер
(°,м/с) 
Видим.   Явления Облачность Т
(°С)
Тd
(°С)
f(%) Тe
(°С)
Pmin
(гПа)
dP
(гПа)
Po
(мм)
O2
(г/м3)
Тmin Tmax R s Состояние
почвы
03 20.09.18 270 (З) 4000 м  дымка  4/0 верхняя 
[Ci fib]
+13 +11.8 92 +17  1011.2  0.8  746  284  +12.1         
09 20.09.18 270 (З) 10 км    8/8 600 м 
[Cu Sc]
+19 +11.9 63 +23  1013.1  1.4  747  279           
15 20.09.18 260 (З) 10 км    8/0 средняя, верхняя 
[Ac trans|Ci fib]
+18.9 +11.9 64 +24  1014.4  0.6  748  280           
21 20.09.18 190 (Ю) 4000 м  дымка  3/0 верхняя 
[Ci fib]
+11.3 +10.4 94 +14  1015.8  0.3  749  288           
00 21.09.18 210 (ЮЗ) 4000 м  дымка  ясно 
+11.2 +10.4 95 +14  1016  0.3  749  288           
03 21.09.18 190 (Ю) 4000 м  дымка  8/0 средняя, верхняя 
[Ac trans|Ci fib]
+11.3 +10.5 95 +14  1016.5  0.5  749  288  +10.7         
09 21.09.18 250 (З) 10 км    9/0 средняя, верхняя 
[Ac trans|Ci fib]
+22.8 +13.9 57 +30  1016.2  0.2  750  276           
12 21.09.18 220 (ЮЗ) 10 км    8/6 600 м верхняя 
[Cu Sc|Ci fib]
+24.9 +13.7 50 +31  1015.6  -0.4  749  274           
15 21.09.18 190 (Ю) 10 км    6/3 1000 м верхняя 
[Cu med, cong|Ci fib]
+22.7 +14 58 +30  1015.4  -0.3  749  276           
21 21.09.18 200 (Ю) 10 км    ясно 
+16.1 +13.3 83 +23  1015.6  -0.4  749  282           
00 22.09.18 190 (Ю) 10 км    ясно 
+14.4 +12.6 89 +20  1015.1  -0.6  749  284           
03 22.09.18 180 (Ю) 4000 м  дымка  3/0 верхняя 
[Ci fib]
+13.5 +12.1 91 +18  1014.2  -0.9  748  285  +13.5         
09 22.09.18 180 (Ю) 10 км    3/0 верхняя 
[Ci fib]
+23 +12.6 52 +28  1010.2  -2.2  745  275           
12 22.09.18 180 (Ю) 5-10{11}  10 км    3/1 100 м верхняя 
[St|Ci fib]
+24.7 +11.3 43 +28  1008.2  -1.8  744  273           
21 22.09.18 310 (СЗ) 10 км  в посл. час ливневой дождь  9/9 600 м кучево-дожд. 
[Cb cap]
+12.3 +8.4 77 +12  1006.8  0.5  742  285           
03 23.09.18 270 (З) 4000 м  слаб. ливневой дождь  10/10 600 м кучево-дожд. 
[Cb cap]
+9.4 +8.7 95 +9  1005.7  -1.6  741  287  +9.4       
06 23.09.18 250 (З) 4000 м  слаб. дождь{ливн. осадки}  10/10 100 м 
[Frnb|Ns]
+9.4 +8.6 95 +9  1005.6  -0.1  741  287  +9.2      мокрая 
09 23.09.18 240 (ЮЗ) 10 км  {дождь}  9/6 300 м средняя, верхняя 
[St|Ac trans|Cc]
+11.4 +9.5 88 +13  1005.7  0.2  741  285           
21 23.09.18 200 (Ю) 4000 м  дымка  ясно 
+5.5 +4.7 95 +5  1006.6  0.3  742  292           
03 24.09.18 210 (ЮЗ) 4000 м  дымка  1/1 300 м 
[St]
+2.8 +2.6 99 +4  1007.1  0.1  742  296  +2.7         
06 24.09.18 190 (Ю) 2000 м  в посл. час туман  10/10 200 м 
[St]
+6.1 +5.8 98 +6  1006.9  0.1  742  292  +2.7        влажная 
09 24.09.18 180 (Ю) 10 км    9/6 200 м верхняя 
[St|Ci fib]
+11.2 +6.5 73 +11  1005.4  -1.2  741  286           
21 24.09.18 040 (СВ) 4000 м  слаб. дождь  10/10 200 м 
[Frnb|Ns]
+7.2 +6.5 95 +7  997.3  -3.2  735  287           
03 25.09.18 320 (СЗ) 2000 м  дождь  10/10 200 м 
[Frnb|Ns]
+7 +6.3 95 +6  995.3  0.4  734  287  +6.8    10     
06 25.09.18 310 (СЗ) 5{10}  4000 м  слаб. дождь  10/10 200 м 
[Frnb|Ns]
+6.8 +5.8 93 +5  998  2.6  736  288  +6.6    12    мокрая 
Время (UTC), дата Ветер
(°,м/с) 
Видим.   Явления Облачность Т
(°С)
Тd
(°С)
f(%) Тe
(°С)
Pmin
(гПа)
dP
(гПа)
Po
(мм)
O2
(г/м3)
Тmin Tmax R s Состояние
почвы

Для получения пояснительной информации подведите курсор к названию столбца.

ПОГОДА в Максатихе - архив

Всё, что Вы хотите узнать о погоде в Максатихе - удобно и подробно!

Выберите нужную дату (начиная с 1 января 2015* года) и нажмите кнопку "Найти".
Будут отображены архивные сводки погоды по пункту Максатиха, начиная с указанной даты.


Отображать данные в формате CSV (для использования в таблицах Excel)


Внимание! Наш архив погоды предназначен исключительно для личного некоммерческого использования в познавательных целях. Если Вам необходимы официальные справки о состоянии погоды (для производственных, юридических, коммерческих и т.п. целей), обращайтесь в органы Росгидромета.

*Примечание: данная дата относится к архиву по метеостанциям СССР (Россия, СНГ, Балтия).
Архив по метеостанциям Зарубежной Европы и Азии (кроме Китая) хранится 10 дней, по другим регионам земного шара (Китай, Африка, Америка, Австралия, Океания) - 1 день.

Максатиха - район местоположения метеостанции


Название, широта, долгота, высота метеостанции:
Максатиха 57.8°ш. 35.9°д. 140 м над ур. моря [Российская Федерация]

Дополнительная информация

В oтличие oт бoльшинства пoгoдных сайтoв мы публикуем пoдрoбную метеoинфoрмацию в детальнoм прoфессиoнальнoм фoрмате.

Характеристики температуры и влажнoсти вoздуха измеряются на высoте 2 м в тени вдали oт зданий и деревьев.
Скoрoсть ветра измеряется на высoте 10 м (на урoвне рoста челoвека скoрoсть ветра ниже в 1.5-2 раза). Если метеoстанция нахoдится в гoрoде или в лесу, тo скoрoсть ветра занижена на 2-4 м/с пo сравнению с oткрытым местoм. Скoрoсть ветра над акватoриями крупных рек и oзёр, а также на вершинах хoлмoв на 2-5 м/с выше, чем в oбычных услoвиях.
Атмoсфернoе давление в разных тoчках местнoсти мoжет значительнo oтличаться oт давления на метеoстанции, в зависимoсти oт услoвий рельефа (при пoдъёме на 10 м давление пoнижается примернo на 1 мм рт.ст.).